CW3442 Weather Reports


Display with metric or nautical units.
time (UTC)temp
F
wind
direction
speed
MPH
gust
MPH
rain 1hr
in
rain 24hr
in
rain mn
in
humidity
%
barometer
mb
20260905060533 61 301 0.0 0.0 0.00 0.00 0.00 91 1007.5
20260905053528 61 301 0.0 0.0 0.00 0.00 0.00 90 1007.5
20260905050539 62 301 0.0 0.0 0.00 0.00 0.00 89 1007.4
20260905043533 62 301 0.0 0.0 0.00 0.00 0.00 87 1007.3
20260905040526 64 301 0.0 0.0 0.00 0.00 0.00 86 1007.3
20260905033542 64 301 0.0 0.0 0.00 0.00 0.00 85 1007.4
20260905030535 65 301 0.0 0.0 0.00 0.00 0.00 86 1007.5
20260905023533 65 301 0.0 0.0 0.00 0.00 0.00 86 1007.5
20260905020540 65 301 0.0 0.0 0.00 0.00 0.00 85 1007.4
20260905013557 66 301 0.0 0.0 0.00 0.00 0.00 83 1007.4
20260905010546 67 301 0.0 0.0 0.00 0.00 0.00 83 1007.0
20260905003545 68 301 0.0 0.0 0.00 0.00 0.00 81 1006.9
20260905000603 69 301 0.0 0.0 0.00 0.00 0.00 81 1006.7
20260904233537 69 301 0.0 0.0 0.00 0.00 0.00 80 1006.5
20260904230531 70 301 0.0 0.0 0.00 0.00 0.00 80 1006.6
20260904223524 71 301 0.0 0.0 0.00 0.00 0.00 79 1006.6
20260904220537 71 301 0.0 0.0 0.00 0.00 0.00 79 1006.5
20260904213549 72 301 0.0 0.0 0.00 0.00 0.00 73 1006.4
20260904210531 73 301 0.0 0.0 0.00 0.00 0.00 67 1006.4
20260904203526 73 83 0.0 0.0 0.00 0.00 0.00 68 1006.4
20260904200545 73 83 0.0 0.0 0.00 0.00 0.00 73 1006.4
20260904193525 72 78 0.0 0.0 0.00 0.00 0.00 78 1006.8
20260904190542 72 82 0.0 0.0 0.00 0.00 0.00 77 1006.7
20260904183539 70 162 0.0 0.0 0.00 0.00 0.00 80 1007.3
20260904180601 72 181 0.0 0.0 0.00 0.00 0.00 73 1007.2
20260904173533 71 210 0.0 0.0 0.00 0.00 0.00 78 1006.9
20260904170543 70 165 0.0 0.0 0.00 0.00 0.00 84 1007.0
20260904163557 71 170 0.0 0.0 0.00 0.00 0.00 79 1007.1
20260904160533 73 170 0.0 0.0 0.00 0.00 0.00 70 1007.1
20260904153542 73 170 0.0 0.0 0.00 0.00 0.00 71 1007.4
20260904150530 72 164 0.0 0.0 0.00 0.00 0.00 73 1007.6
20260904143544 71 169 0.0 0.0 0.00 0.00 0.00 75 1007.5
20260904140532 69 169 0.0 0.0 0.00 0.00 0.00 80 1007.5
20260904133524 67 169 0.0 0.0 0.00 0.00 0.00 83 1007.6
20260904130541 67 169 0.0 0.0 0.00 0.00 0.00 84 1007.5
20260904123534 66 169 0.0 0.0 0.00 0.00 0.00 86 1007.5
20260904120530 65 169 0.0 0.0 0.00 0.00 0.00 87 1007.5
20260904113526 64 169 0.0 0.0 0.00 0.00 0.00 88 1007.4
20260904110542 64 169 0.0 0.0 0.00 0.00 0.00 88 1006.9
20260904103535 64 169 0.0 0.0 0.00 0.00 0.00 89 1006.5
20260904100524 64 169 0.0 0.0 0.00 0.00 0.00 88 1006.3
20260904093527 64 169 0.0 0.0 0.00 0.00 0.00 89 1006.4
20260904090539 64 169 0.0 0.0 0.00 0.00 0.00 90 1006.3
20260904083540 64 169 0.0 0.0 0.00 0.00 0.00 89 1006.2
20260904080540 65 169 0.0 0.0 0.00 0.00 0.00 89 1006.2
20260904073539 65 169 0.0 0.0 0.00 0.00 0.00 89 1006.2
20260904070538 65 169 0.0 0.0 0.00 0.00 0.00 90 1006.2
20260904063530 65 169 0.0 0.0 0.00 0.00 0.00 90 1005.9